Wind_Speed
20 21 13 7 8 10 26 31 21 25 29 21 8 14 19 8 11 2 3 17 31 32 31 30 27 23 22 22 22 22 29 28 25 26 25 25 23 22 21 21 22 22 20 19 19 20 19 19 17
19 21 9 4 9 18 23 32 31 23 23 19 12 7 12 12 2 8 12 18 31 32 30 27 26 24 23 22 23 26 30 28 27 26 25 24 23 22 21 22 23 22 21 19 17 18 16 16 15
18 22 4 6 16 24 26 28 24 23 22 22 12 8 2 3 4 11 9 27 31 31 29 27 26 24 24 22 24 27 30 28 27 27 26 25 23 22 22 23 23 21 21 18 16 15 16 15 14
8 8 6 13 21 22 35 24 24 22 15 21 18 8 4 2 5 9 25 30 30 30 28 28 26 24 26 23 26 29 28 28 28 28 26 23 22 23 24 25 24 22 21 18 19 18 18 15 14
9 5 15 9 36 22 26 26 25 27 19 21 21 12 5 3 3 14 28 31 31 29 27 27 26 27 29 24 26 28 28 28 29 28 25 23 22 22 22 26 25 23 20 19 20 18 17 14 14
5 4 13 18 13 24 21 28 25 29 25 19 21 18 6 5 13 21 27 30 31 29 29 26 25 28 31 26 26 28 29 29 29 27 24 23 22 22 22 25 25 23 18 19 19 18 16 13 14
8 12 15 22 17 21 18 26 15 24 26 23 15 22 10 10 17 25 27 29 30 29 28 27 24 25 32 27 27 28 30 29 25 23 23 23 23 23 22 24 24 22 19 19 17 16 14 13 12
6 7 23 10 10 12 21 22 24 19 23 18 22 12 19 10 20 27 27 29 30 30 28 27 26 24 27 25 26 27 26 25 24 21 22 23 22 22 22 23 21 21 18 17 16 14 13 12 11
9 8 14 10 14 9 12 20 22 13 15 15 22 10 14 27 26 29 28 27 28 29 29 28 28 27 25 25 24 25 23 22 21 21 22 21 18 18 18 17 20 19 17 16 14 13 11 10 9
8 10 10 4 8 11 13 14 22 22 17 14 18 4 17 21 29 26 27 25 27 27 28 28 28 28 26 24 23 21 19 18 17 19 21 19 18 16 14 16 17 17 16 14 12 10 10 8 6
6 9 11 7 9 13 18 19 17 24 20 17 22 17 17 18 26 11 23 25 27 25 25 27 27 27 25 25 24 21 20 19 19 19 19 17 17 16 15 14 13 12 14 10 9 8 6 6 5
7 6 3 4 8 17 11 19 17 23 26 12 20 20 19 16 18 2 14 9 18 23 25 24 25 25 23 24 22 21 20 19 19 19 18 17 15 16 15 14 13 11 11 10 9 8 7 7 6
5 6 3 6 9 15 16 19 14 16 14 12 17 17 18 15 22 25 22 9 8 20 24 24 24 23 24 21 21 19 19 17 17 17 17 15 14 15 14 13 12 11 10 9 8 7 7 6 5
7 7 8 12 16 12 16 15 16 10 11 14 16 19 18 18 18 22 24 20 18 26 25 23 22 21 23 23 20 19 19 17 16 15 15 15 14 14 13 12 11 10 9 8 8 8 8 7 6
7 7 4 9 9 8 19 11 14 15 14 14 18 16 18 19 25 28 30 28 25 26 28 25 23 21 22 21 21 18 18 18 16 14 14 14 13 12 11 11 10 10 10 9 9 8 7 7 6
5 4 4 3 11 5 6 11 16 8 10 12 21 19 21 21 23 27 28 32 23 28 25 26 22 22 21 19 19 18 17 15 17 15 14 14 13 13 11 10 10 10 9 9 9 8 7 8 7
6 4 6 5 5 4 7 13 4 5 3 4 12 15 19 19 18 22 24 25 27 27 30 27 25 22 21 19 17 15 16 16 14 16 15 15 14 15 13 11 11 11 10 9 9 9 8 8 8
6 6 7 9 4 3 5 10 6 2 1 7 9 10 9 18 20 22 24 22 29 27 29 28 24 21 19 17 15 13 13 13 13 15 15 16 17 17 16 14 13 13 12 11 11 10 9 8 7
4 6 8 2 6 1 2 10 15 1 5 5 8 7 9 7 5 22 19 20 24 30 25 21 23 22 21 20 17 13 14 13 12 12 13 15 16 17 17 15 14 15 14 14 13 11 10 9 6
3 5 5 2 0 4 1 12 13 3 5 6 9 8 10 11 10 10 17 23 18 24 23 21 18 21 24 17 17 11 11 8 9 9 11 12 14 15 16 17 16 16 15 15 14 14 11 10 8
1 2 4 1 3 7 6 6 3 4 6 6 6 9 8 10 15 16 21 23 10 21 25 24 23 21 21 19 17 12 6 5 4 8 9 13 15 16 17 17 17 17 20 20 17 13 12 10 6
2 2 4 6 7 2 1 1 10 9 9 9 12 12 12 11 10 13 17 20 25 31 20 26 20 14 23 20 12 6 5 11 9 16 13 14 18 19 16 19 24 26 25 23 21 18 17 14 10
3 3 3 6 2 3 4 5 8 10 7 11 13 12 12 13 12 10 9 19 23 33 40 29 32 28 16 11 13 23 18 26 26 20 17 16 15 16 15 22 32 28 26 21 22 21 19 20 19
2 4 5 4 3 4 4 5 5 8 14 15 11 9 12 13 12 11 12 9 13 18 29 29 29 31 36 36 36 32 30 29 25 25 25 21 23 23 25 35 36 29 27 24 23 24 27 24 19
6 6 3 4 3 3 2 5 7 3 4 4 6 11 10 10 11 12 13 13 14 20 19 17 20 24 35 39 42 39 35 36 38 35 29 30 29 31 34 34 28 24 21 20 21 30 28 27 21
8 4 3 5 4 2 2 4 1 6 2 4 5 7 7 9 11 9 8 10 14 15 16 18 19 17 18 25 32 31 34 33 33 33 35 32 34 32 29 25 20 17 16 20 25 27 23 21 17
1 6 3 1 1 3 2 4 9 5 2 2 4 5 6 7 11 9 6 11 16 15 18 19 18 18 18 18 19 21 23 23 27 27 26 25 24 22 19 21 18 17 19 21 22 19 18 18 15
3 2 2 3 5 5 3 4 5 10 10 7 6 2 3 2 5 4 5 11 12 10 13 16 18 18 17 16 15 15 14 15 15 13 15 16 17 18 19 21 20 20 20 19 18 16 15 12 11
1 3 3 2 4 2 3 3 5 7 8 8 5 4 3 3 4 2 3 4 4 10 14 14 14 15 16 15 14 14 14 15 14 12 15 15 15 16 19 20 20 19 18 17 15 14 12 10 9
1 3 5 4 3 0 6 4 8 9 8 6 3 5 5 4 4 4 4 5 2 5 11 13 12 14 13 13 13 13 13 13 12 12 13 14 16 18 21 22 20 18 17 15 13 12 11 8 8
Wind_Direction
262 265 269 198 212 218 219 223 219 218 205 209 229 203 206 221 179 201 117 163 158 158 160 164 164 162 158 156 157 159 157 155 157 154 152 147 139 136 134 133 126 125 123 123 116 113 113 109 104
252 251 253 241 210 209 219 213 210 220 201 180 180 210 194 200 116 114 138 165 159 156 157 161 165 162 158 159 158 156 157 158 159 154 152 144 136 136 136 135 130 128 129 129 129 124 118 109 105
265 251 242 234 225 214 219 206 212 215 199 183 161 200 185 169 155 155 153 159 159 156 157 161 165 162 157 158 160 157 160 163 157 153 150 143 140 138 138 138 137 137 132 128 129 127 124 112 108
250 235 257 207 222 214 224 206 209 206 206 201 180 162 176 348 163 167 155 158 160 156 156 162 164 161 155 155 160 159 164 161 155 154 149 147 142 140 141 145 144 139 132 133 124 124 126 123 109
223 257 232 242 238 212 223 222 199 216 188 197 184 170 134 135 163 156 158 159 162 158 156 157 163 159 154 149 155 161 161 159 156 150 150 145 143 142 144 149 144 140 141 128 128 130 126 119 112
221 223 219 241 235 227 239 225 210 215 201 185 193 164 132 138 157 159 162 164 163 159 155 156 162 161 155 148 147 154 158 155 153 149 152 145 147 147 147 147 146 141 146 133 135 136 131 124 120
222 217 233 227 264 250 208 222 214 223 209 195 193 192 165 173 170 162 166 165 164 160 156 155 155 160 159 154 152 145 151 148 149 156 151 150 155 152 150 150 149 146 153 140 139 138 136 132 127
212 232 236 240 231 235 215 245 243 255 211 192 184 188 193 158 170 160 167 166 167 161 159 157 155 154 164 159 159 160 155 154 154 155 149 155 155 152 153 152 152 152 157 147 146 143 138 133 129
203 217 226 252 233 247 237 213 243 248 246 186 193 227 196 163 157 164 162 169 168 165 162 161 158 158 156 162 162 160 158 155 153 155 153 154 152 152 155 159 156 160 164 156 155 154 151 144 137
199 212 197 284 351 256 285 301 219 232 230 189 200 134 123 151 158 170 164 169 170 168 164 163 162 161 157 152 154 162 164 160 158 156 157 155 157 159 163 161 159 163 169 165 165 166 162 146 160
192 226 166 214 344 331 243 266 273 243 235 211 195 180 164 161 97 190 166 168 170 168 166 163 164 164 157 152 152 155 159 162 164 164 163 163 160 161 157 161 159 162 164 165 166 171 172 178 175
194 85 101 9 28 349 308 231 275 215 241 258 210 180 158 168 144 167 32 144 179 168 170 163 167 167 161 159 157 155 157 161 164 168 167 166 163 164 166 166 170 173 177 180 181 190 190 187 182
198 158 93 17 360 340 309 228 249 260 268 306 219 169 160 148 154 176 283 305 260 189 179 171 171 171 169 158 158 155 158 158 161 165 170 171 170 171 171 175 176 180 185 188 191 194 198 191 194
140 126 97 43 17 2 346 283 231 254 310 295 211 182 158 157 173 169 249 246 227 200 182 175 174 172 170 170 164 164 164 164 160 167 173 177 178 178 178 179 182 185 185 189 193 189 188 190 190
165 187 68 48 20 11 343 258 230 261 293 280 206 176 162 166 157 168 192 209 224 179 179 179 174 173 170 172 173 172 166 172 168 172 178 182 184 182 179 183 189 192 188 188 189 193 192 198 197
176 165 210 65 5 2 341 256 212 305 298 253 205 194 160 166 160 174 175 199 211 189 182 183 176 174 168 167 172 178 179 175 184 180 185 191 193 193 190 195 195 191 189 191 199 202 203 207 207
199 192 200 261 65 307 29 309 170 338 303 182 200 202 174 152 169 171 184 199 208 190 183 181 184 179 170 165 167 170 176 183 188 197 193 199 203 201 200 203 203 201 201 199 206 208 205 207 212
201 184 195 205 154 255 13 311 304 38 215 177 144 168 127 159 170 171 186 189 205 193 189 184 182 178 174 167 165 168 172 185 194 199 206 205 209 208 209 213 208 204 208 210 212 211 208 210 218
295 290 203 154 171 222 98 308 290 283 192 136 115 136 149 175 157 160 169 171 187 197 206 183 176 173 168 169 168 169 182 184 190 205 211 214 219 221 220 221 217 213 214 215 215 214 208 210 208
182 147 117 122 28 223 4 287 268 229 188 153 143 146 156 173 154 170 166 175 186 188 197 191 183 175 165 167 176 164 172 193 203 197 214 217 220 224 228 232 228 222 223 219 210 202 197 204 212
118 96 143 50 175 261 299 258 229 188 205 179 166 140 158 181 177 181 190 168 181 230 205 207 192 180 169 160 151 166 198 252 245 206 219 233 238 232 238 240 240 235 225 228 217 210 210 194 172
214 195 172 151 163 288 348 45 213 190 180 200 186 172 168 173 177 193 171 180 182 208 215 224 232 203 172 169 167 191 220 292 256 243 242 255 263 244 263 270 262 249 240 232 223 217 209 182 168
4 309 211 188 213 277 196 276 128 167 191 212 203 192 180 173 189 190 185 178 192 201 201 219 201 218 230 252 233 238 210 214 244 242 246 246 247 237 246 264 256 248 243 228 223 215 209 195 195
183 154 113 146 236 269 260 231 174 174 194 203 218 211 204 179 180 189 197 193 183 192 205 218 206 197 204 214 211 211 216 216 234 246 237 250 244 240 239 256 254 237 229 225 221 216 197 200 211
228 210 173 206 212 247 12 233 286 204 169 179 200 230 237 214 198 187 190 189 186 191 195 193 207 213 210 214 215 220 216 217 214 218 218 226 235 238 240 244 230 222 220 229 223 204 200 209 216
234 269 257 215 207 204 14 244 336 58 28 212 238 226 244 236 212 200 196 205 190 192 189 193 197 207 200 198 208 219 225 216 208 213 219 220 225 229 228 217 221 221 220 217 209 202 202 203 216
221 231 356 66 27 243 181 270 277 29 83 239 192 264 242 246 179 206 187 216 203 199 195 196 198 199 199 195 198 197 197 195 199 203 204 211 217 218 209 206 206 206 205 198 190 189 198 200 200
290 43 207 185 207 218 176 260 261 4 9 30 91 170 196 17 24 14 310 249 221 201 200 194 189 190 191 190 185 185 184 189 191 188 197 203 206 205 198 195 193 188 184 185 186 184 186 186 194
356 283 268 342 329 266 158 130 32 358 347 342 9 98 128 97 79 38 337 301 255 175 199 180 181 175 178 177 175 178 183 187 190 184 197 199 200 194 190 186 182 177 171 173 175 181 182 183 188
357 83 4 312 149 12 326 83 10 7 4 338 70 90 90 73 42 62 66 67 58 144 167 166 167 165 169 167 165 167 171 177 178 181 183 181 182 180 180 178 175 173 173 175 176 177 174 177 187
Height
794 794 794 793 795 777 763 752 736 741 745 743 745 745 744 743 756 764 761 762 765 772 778 784 790 793 795 797 799 802 804 807 810 814 817 819 822 825 827 829 830 832 834 835 836 837 839 839 839
792 792 792 781 774 772 746 738 739 736 737 743 752 753 748 751 751 758 763 764 768 772 778 784 789 792 795 797 799 802 805 808 811 814 819 820 823 825 828 830 832 834 835 837 838 839 841 841 842
790 789 786 775 764 750 736 728 734 738 732 741 748 749 748 745 752 756 759 765 770 773 779 784 788 791 794 798 799 803 806 808 812 815 820 821 824 826 829 831 833 835 837 838 840 841 842 843 844
790 788 779 762 753 745 729 726 734 735 734 734 736 751 750 753 753 757 760 766 771 774 778 783 788 791 794 798 799 803 806 809 812 816 820 823 826 828 830 832 834 836 838 839 840 842 844 845 845
787 785 776 755 745 747 733 725 733 734 730 730 731 749 745 752 756 758 762 765 770 775 778 783 788 791 795 799 800 803 807 810 813 816 820 824 828 829 831 832 835 837 839 839 841 843 844 846 846
782 776 766 766 752 740 745 729 725 725 722 727 734 742 744 752 756 759 764 766 771 774 779 783 789 792 795 799 802 803 807 811 814 817 821 825 828 830 832 835 836 838 840 841 843 843 845 847 847
774 770 761 758 766 758 745 728 729 722 720 722 726 739 748 751 755 759 764 768 770 774 779 783 788 793 796 799 804 806 809 812 816 819 822 825 829 831 833 835 838 839 841 841 844 845 846 847 848
768 767 764 767 766 755 744 745 731 727 716 715 721 730 739 741 753 759 765 767 770 773 779 782 786 792 797 800 804 807 811 814 817 821 824 826 830 833 835 836 838 840 842 843 845 847 847 848 849
761 765 758 768 768 746 736 744 742 727 718 716 720 719 725 733 743 758 764 769 772 774 777 781 785 790 795 799 804 808 812 815 818 821 825 828 833 836 837 839 839 841 843 844 846 847 848 849 850
758 758 763 769 763 756 750 748 740 735 724 720 723 733 734 736 743 742 758 765 772 775 777 781 785 788 793 797 803 808 813 816 820 823 826 830 833 837 840 840 841 842 844 846 847 848 849 851 852
753 755 756 768 767 760 751 749 740 738 724 718 722 728 736 742 741 736 759 765 768 777 781 782 786 789 792 796 801 807 812 816 820 824 827 830 833 836 839 842 843 845 845 848 849 849 851 852 853
754 759 762 764 762 760 753 744 744 737 720 713 716 721 730 734 734 754 760 770 776 777 782 784 788 789 791 795 800 804 810 815 819 823 827 831 833 836 838 841 843 845 846 847 848 850 850 850 851
750 758 763 761 761 759 752 742 744 728 719 727 717 728 730 734 737 747 766 774 775 780 783 785 787 790 791 794 799 804 809 813 817 822 826 830 832 835 837 840 842 843 845 846 847 848 850 850 851
753 756 756 755 759 756 756 740 741 722 724 726 720 722 728 734 740 748 763 766 770 777 780 783 787 789 791 793 798 803 808 812 815 821 824 828 831 834 837 839 841 842 844 845 847 848 849 849 849
754 753 750 756 761 759 760 737 733 724 726 723 720 720 728 734 742 747 757 764 762 765 776 781 784 788 790 793 798 803 806 811 814 819 824 827 831 834 837 839 840 842 843 844 845 847 847 849 848
750 752 757 755 755 760 763 737 727 728 723 717 713 719 732 735 741 747 749 760 757 767 773 778 782 786 788 792 797 802 806 810 813 818 823 827 830 834 836 838 840 841 842 843 846 846 847 848 848
748 745 756 749 754 761 761 744 726 725 720 723 717 720 729 738 742 746 755 756 765 764 771 776 780 784 787 791 797 801 805 809 813 816 820 825 829 831 834 836 838 840 841 842 845 846 845 847 847
737 739 731 735 752 753 751 749 727 723 723 721 722 727 728 733 742 747 755 758 761 763 769 773 776 781 785 791 795 799 803 808 812 815 819 822 826 829 831 833 835 837 839 840 842 844 844 844 846
733 731 721 744 749 751 749 751 740 725 723 717 721 726 732 735 741 745 753 757 762 765 767 768 774 780 784 788 791 795 800 805 809 813 817 821 825 828 829 832 833 834 835 837 839 841 842 843 845
735 733 737 739 742 751 740 745 737 724 720 718 723 725 725 734 737 742 749 756 760 764 767 771 776 779 778 783 786 792 798 803 806 810 815 818 821 825 828 830 831 832 833 834 835 838 838 841 843
737 732 735 736 741 745 738 730 729 725 720 719 721 724 728 729 731 735 745 750 756 764 765 771 774 776 777 779 782 791 795 799 804 808 811 814 817 820 825 826 829 830 830 831 832 835 836 839 842
736 735 734 738 742 744 736 717 729 725 718 716 714 720 727 731 734 738 743 748 746 750 761 764 765 771 774 773 778 784 787 789 802 806 808 811 812 815 818 821 824 825 826 826 828 830 833 834 836
739 739 734 734 738 738 742 736 707 717 723 716 710 711 715 723 731 731 735 743 745 751 754 760 764 768 768 766 766 783 790 796 802 804 805 806 808 810 812 817 819 820 820 821 821 825 829 831 829
744 740 739 738 739 740 726 739 707 710 705 711 712 714 716 719 725 728 733 737 741 747 752 755 758 762 767 775 780 782 785 792 797 798 799 800 804 805 807 811 811 813 815 815 817 822 824 827 830
746 741 746 750 749 734 741 741 710 711 713 713 712 712 716 719 722 726 731 735 739 744 747 748 752 754 761 766 770 776 778 785 785 792 795 797 800 799 801 806 807 808 809 811 814 817 820 823 825
744 746 737 742 737 731 744 732 707 711 714 712 713 714 717 717 717 718 723 728 733 736 739 744 747 751 755 761 763 768 772 778 784 786 788 790 792 794 797 802 803 804 806 808 812 815 818 820 821
759 755 748 749 752 740 728 725 715 709 715 714 716 715 714 716 712 719 721 726 730 734 737 741 746 749 754 757 760 763 768 774 779 779 782 783 787 789 792 797 799 801 804 808 811 814 816 818 818
756 760 758 754 750 740 732 735 719 717 718 717 715 716 716 718 716 717 721 728 731 732 736 741 745 748 751 753 756 761 765 770 773 775 777 779 782 787 791 794 796 799 803 807 810 812 815 816 818
757 758 759 763 752 729 725 721 726 729 728 724 721 722 722 722 723 726 726 727 729 730 737 738 742 744 748 751 754 758 762 766 769 770 773 775 780 783 787 791 795 799 802 806 809 812 813 815 816
762 772 775 757 752 762 746 726 730 730 731 730 728 730 731 730 730 727 728 727 729 730 734 736 739 741 745 748 752 757 760 763 765 766 769 773 778 781 784 789 793 797 800 805 808 810 812 814 815